Location: Mannheim
(49.4880°N, 8.4650°E)
Time: 22:22:35
(UTC+02:00)

ISS - Pass Details

Date: 16 May 2024
Orbit: 411 x 418 km, 51.6° (Epoch: 30 May)

Event Time Altitude Azimuth Distance (km) Brightness Sun altitude
Rises 01:42:04 0° 289° (WNW) 2,368 0.2 -21.2°
Reaches altitude 10° 01:44:13 10° 284° (WNW) 1,500 -0.9 -21.2°
Enters shadow 01:44:50 15° 281° (W) 1,252 -1.3 -21.2°
